Theta_e
310 308 309 314 316 314 316 315 314 318 322 321 319 320 325 331 332 332 334 335 336 337 340 343 344 345 345 347 347 347 346 347 345 342 340 339 339 342 346 352 358 360 359 359
307 307 310 314 313 314 312 310 312 312 318 321 319 319 323 330 330 332 333 334 336 337 340 341 343 345 345 345 347 348 348 348 346 344 344 343 346 348 351 354 358 359 359 359
307 309 310 310 309 309 308 307 306 308 314 318 318 315 320 327 331 333 335 336 337 337 338 341 342 344 345 345 347 347 348 348 347 346 345 346 349 351 350 353 357 356 356 357
306 307 307 307 308 310 308 308 307 307 310 306 317 307 317 323 326 329 332 334 335 337 340 341 342 343 344 346 347 349 349 348 347 348 347 348 342 343 348 353 358 357 357 355
305 304 304 305 307 309 309 308 307 308 310 313 312 309 314 319 321 325 330 333 335 338 339 340 341 343 344 346 346 348 349 349 348 348 349 345 346 347 351 354 355 361 360 358
305 307 307 310 307 309 310 313 311 310 311 305 312 311 311 316 321 325 328 331 333 336 339 341 343 344 344 346 346 347 348 350 350 349 348 350 351 351 350 353 352 355 358 359
303 305 307 308 307 308 309 308 303 303 302 303 305 310 312 320 322 326 327 330 332 334 337 340 341 342 344 344 345 346 349 349 350 348 347 349 351 353 352 354 353 357 353 353
299 297 305 309 308 306 307 308 303 298 299 302 306 306 310 317 319 320 328 331 332 333 335 339 340 342 343 344 346 347 349 350 352 351 351 353 354 351 352 355 356 357 356 356
300 300 305 308 309 311 306 305 310 303 301 303 304 308 313 317 320 321 321 327 329 332 333 336 340 341 343 344 346 347 352 352 352 352 354 355 356 357 355 358 360 359 359 356
305 300 306 307 311 309 310 311 304 306 300 298 302 304 307 316 320 321 322 325 329 333 333 335 337 340 343 345 347 349 350 353 353 353 354 355 356 359 359 360 359 356 356 354
306 304 304 308 307 306 306 307 305 308 305 301 300 304 317 320 321 322 323 327 330 333 333 334 336 339 342 344 345 347 349 351 353 354 355 356 357 358 359 356 354 351 351 348
308 306 303 305 307 309 311 310 311 305 303 304 306 306 316 319 319 322 323 328 331 333 334 335 336 338 340 342 343 345 349 351 353 355 356 356 356 354 352 352 349 347 344 345
307 304 300 302 305 308 308 308 310 310 310 306 303 305 316 319 322 325 326 328 331 332 334 336 337 338 340 341 344 345 348 350 353 354 354 354 350 346 345 345 344 345 345 344
312 306 305 300 304 308 306 306 308 310 306 307 307 310 316 320 324 328 331 332 332 333 335 338 339 342 343 345 346 348 350 352 352 352 350 347 345 344 343 344 344 344 345 343
311 306 306 306 306 307 307 307 306 307 310 306 309 309 316 324 327 330 333 333 333 334 336 337 338 340 342 345 348 349 349 349 348 346 345 343 344 344 344 341 340 340 339 338
306 307 306 305 305 306 305 307 307 308 306 308 308 310 318 326 328 330 332 332 333 334 335 337 338 340 342 345 344 343 343 345 346 343 341 341 339 338 337 336 336 335 335 334
305 306 305 301 306 304 300 305 307 308 310 310 306 314 317 320 324 329 332 332 333 334 336 337 338 340 340 340 340 340 341 341 339 337 336 335 334 331 330 330 331 331 332 334
306 307 306 302 304 296 307 313 311 309 311 312 314 316 318 323 328 331 336 333 333 335 336 337 338 338 339 339 340 339 337 335 333 331 330 330 330 328 329 329 329 330 331 331
306 305 303 301 300 305 307 309 309 309 310 314 315 318 318 326 330 331 335 336 336 338 339 339 339 338 338 337 337 334 331 330 329 326 325 326 326 327 327 327 328 329 329 328
303 309 302 302 299 297 308 313 315 315 307 318 318 320 324 328 318 326 335 335 336 339 339 337 336 337 335 333 333 330 327 326 323 322 323 325 326 326 325 326 327 328 327 326
299 301 299 300 302 306 314 316 316 306 311 322 319 324 328 324 330 338 336 334 339 338 335 335 335 333 331 330 330 325 323 320 321 322 323 324 325 325 326 327 327 326 325 324
302 301 299 302 300 299 315 313 311 322 325 324 323 327 333 332 335 335 334 335 335 333 332 333 330 328 327 327 325 322 318 320 321 322 322 323 324 324 324 325 324 324 323 321
303 310 306 308 306 324 316 320 323 322 328 324 328 329 334 333 334 334 332 332 331 331 330 329 326 324 323 323 324 320 316 320 320 321 322 322 323 321 321 320 320 317 318 316
311 311 310 309 318 315 317 320 325 322 323 327 329 332 334 333 333 331 331 330 329 328 326 326 323 320 318 319 320 319 318 319 320 320 320 320 320 318 318 316 315 314 313 311
312 314 316 314 317 320 323 325 325 325 327 329 332 334 334 333 331 330 329 329 327 326 325 324 321 318 317 316 316 317 316 319 318 318 319 319 318 317 316 315 312 312 309 305
311 316 312 311 326 327 327 330 329 328 329 332 333 333 334 333 330 329 327 327 326 324 324 320 319 315 314 314 313 316 318 319 317 316 316 315 313 313 313 312 309 302 302 299
Wind_Speed
5 7 11 13 5 1 8 5 8 11 8 10 11 4 9 14 14 12 11 12 13 13 10 10 11 12 11 11 12 13 11 10 7 6 6 6 7 5 6 5 6 6 6 5
6 13 7 8 7 11 7 5 6 3 8 13 8 12 5 14 17 16 14 14 14 13 11 11 11 12 14 13 13 12 12 11 10 8 6 5 2 3 4 4 4 6 6 5
11 5 16 11 9 10 6 6 4 5 6 4 6 8 9 10 13 15 16 15 15 16 15 13 14 15 13 14 13 12 12 13 12 12 7 6 5 5 6 5 4 5 6 5
6 5 12 11 12 10 10 10 6 8 8 4 9 1 7 13 16 16 18 18 18 19 16 14 15 15 16 15 11 13 14 14 13 12 10 11 9 9 7 5 5 4 7 6
10 13 10 8 6 12 2 4 7 7 8 5 8 5 4 6 15 22 22 22 21 20 18 17 17 17 17 15 14 14 13 13 13 12 13 10 11 9 8 7 7 6 4 7
4 2 6 10 5 12 14 11 12 7 6 5 6 7 3 8 16 20 20 21 22 21 19 17 18 16 15 16 15 14 14 14 13 13 13 13 13 12 9 8 6 5 4 4
3 7 1 3 11 8 7 8 4 4 5 1 1 7 11 11 11 11 20 25 24 22 19 18 19 18 17 17 17 15 15 15 14 15 13 15 15 12 11 11 8 7 5 2
11 11 11 9 9 9 13 9 4 4 5 3 3 7 8 4 5 8 15 17 19 20 18 20 21 20 19 20 20 19 16 15 15 15 15 11 13 10 10 9 8 7 5 4
11 8 4 13 7 11 7 7 1 7 2 4 4 5 13 5 8 6 12 13 16 19 20 20 21 21 19 19 20 20 17 16 16 16 12 10 12 12 12 11 8 6 3 1
6 7 7 10 7 4 6 12 7 1 8 6 5 4 5 4 4 2 7 12 14 14 16 18 20 20 19 19 18 18 17 17 16 14 12 11 11 12 11 9 7 5 3 3
8 2 6 9 12 15 6 5 5 4 3 9 6 5 6 8 5 7 2 9 11 13 15 17 17 16 17 16 16 16 16 15 11 11 10 10 9 8 7 5 4 3 2 2
8 3 5 12 4 1 8 11 10 7 6 0 4 7 4 8 10 7 5 6 9 11 13 14 14 14 16 15 14 15 12 10 9 8 8 7 6 3 3 2 1 1 4 4
12 5 6 7 5 2 6 5 5 8 4 8 10 6 2 6 7 6 6 6 7 8 10 10 11 11 11 11 10 8 7 7 6 6 5 5 5 4 3 2 3 4 5 5
19 8 9 11 11 8 8 9 10 12 7 8 9 8 7 9 10 8 6 4 5 6 8 9 9 9 8 8 8 8 6 5 5 5 5 5 5 5 4 4 5 5 5 5
12 13 11 10 4 5 7 13 15 14 11 12 11 12 13 14 15 12 7 7 9 9 10 11 11 10 10 10 8 7 8 8 8 8 8 7 7 7 7 7 7 6 5 4
4 7 8 18 14 13 18 14 15 13 5 3 4 9 11 9 4 9 11 10 11 11 12 12 12 13 13 12 11 10 9 9 9 10 10 9 9 9 8 7 5 4 4 4
3 7 6 14 9 8 12 18 15 11 8 6 8 11 10 10 14 15 15 14 13 13 13 14 14 14 12 12 12 11 11 11 12 11 10 9 8 7 6 5 4 5 5 5
5 4 5 6 6 15 6 7 19 20 19 15 7 8 13 11 18 13 11 17 16 16 16 15 14 14 13 12 13 14 12 12 12 11 9 7 5 5 5 5 5 5 5 6
10 4 4 7 14 7 11 6 8 12 16 17 17 9 7 4 7 4 12 14 14 14 13 13 13 14 15 15 14 14 12 11 10 9 7 6 5 6 5 5 6 6 6 6
10 4 6 3 15 20 7 18 7 6 11 13 18 15 16 14 9 10 20 18 17 16 14 15 15 16 17 14 13 13 11 10 10 8 6 6 6 6 7 6 6 5 5 6
7 5 12 9 6 9 6 12 16 12 7 9 19 15 20 15 4 6 21 19 20 19 19 18 17 14 15 14 13 13 10 10 8 7 6 7 8 7 7 6 6 6 7 7
10 11 7 5 8 12 7 10 13 10 4 8 14 17 19 8 8 16 17 18 18 20 20 18 16 14 13 11 11 11 12 9 9 7 8 9 8 6 6 7 7 8 8 7
11 7 9 11 9 4 9 3 5 4 8 10 17 16 17 13 15 18 19 21 21 21 18 16 15 16 12 9 8 10 7 8 10 9 9 9 8 7 7 7 7 4 5 6
6 5 6 6 12 11 7 8 6 4 7 8 13 20 21 18 19 21 21 21 21 20 20 18 18 16 12 9 8 9 10 9 10 9 9 6 6 5 6 5 5 5 6 6
1 11 9 6 3 2 8 11 9 7 5 10 13 16 20 22 21 24 22 21 20 20 18 17 16 14 13 11 10 9 8 7 10 9 7 5 4 3 4 5 6 5 6 6
4 2 7 5 6 5 3 9 10 9 9 12 19 18 17 20 24 25 22 20 20 20 17 15 15 15 13 11 11 9 7 7 9 8 5 4 4 4 4 3 5 9 8 4
Wind_Direction
165 188 186 174 192 166 161 176 198 217 189 192 210 223 188 191 204 214 216 215 219 220 212 202 205 208 214 217 218 221 223 228 225 228 242 251 257 273 277 279 284 281 288 285
161 216 166 169 157 148 159 184 225 225 178 207 199 229 208 197 211 211 218 223 223 223 210 202 199 202 206 211 217 217 221 221 217 216 218 232 247 281 283 281 285 283 275 268
201 172 152 146 162 158 195 198 206 232 112 160 175 231 215 207 215 220 226 226 230 226 211 199 200 206 210 213 210 213 218 218 217 217 222 233 250 247 251 246 253 235 236 265
211 146 158 170 186 189 226 205 193 186 181 227 203 252 208 203 210 216 223 226 225 224 218 204 201 206 210 217 211 214 213 212 214 209 218 222 233 245 244 240 222 236 243 231
180 177 177 184 205 190 202 137 193 207 189 185 191 255 116 199 224 218 217 221 225 225 217 205 205 208 212 209 209 216 218 220 215 209 217 220 235 247 252 243 256 248 238 242
131 165 210 215 159 184 142 105 87 107 175 221 174 246 209 192 217 218 218 215 222 220 218 210 210 206 211 209 210 215 214 222 217 217 223 227 233 240 251 256 264 270 274 254
160 194 181 202 145 165 172 169 166 168 191 109 335 207 263 255 240 222 214 212 211 216 209 204 205 205 209 207 212 213 215 220 216 216 217 223 236 242 248 259 266 257 256 234
184 196 192 193 198 171 188 205 212 169 185 145 129 220 243 272 297 241 227 219 212 214 203 200 204 209 206 205 209 211 215 219 220 221 224 218 229 236 246 249 254 258 259 267
177 219 161 189 173 177 164 192 182 106 66 208 167 251 274 260 259 283 214 201 203 207 206 198 202 208 207 206 210 212 216 216 220 220 222 218 223 228 238 242 242 256 224 193
177 194 189 169 134 122 215 144 167 213 158 210 180 271 257 281 326 91 166 195 204 204 202 197 203 205 207 208 211 214 217 221 218 223 222 224 224 227 236 240 231 223 200 212
156 258 142 162 204 169 155 171 72 110 314 208 218 226 218 247 293 312 197 197 201 201 199 200 203 203 206 209 210 216 218 223 220 217 220 229 236 244 252 237 182 170 167 280
174 179 188 190 105 318 207 183 178 198 185 203 258 216 197 251 274 265 260 213 204 204 199 197 197 193 197 203 206 212 217 217 218 215 211 222 227 200 199 163 56 351 321 315
170 197 181 159 157 130 200 163 132 105 130 189 208 204 217 262 252 236 240 217 206 207 194 181 176 186 191 192 198 203 201 208 191 186 196 178 143 135 105 45 26 334 331 336
167 181 216 205 193 152 168 176 178 193 198 182 221 222 225 223 229 212 191 186 193 197 176 163 159 160 159 157 165 169 165 163 143 130 121 113 95 79 67 58 57 44 36 32
183 215 206 217 191 178 173 184 181 191 196 207 211 209 222 213 211 206 179 167 169 165 169 166 160 152 148 145 139 130 117 111 112 105 92 86 88 81 75 67 60 53 38 14
173 206 190 223 216 236 245 230 203 209 177 205 186 223 236 246 186 186 188 187 184 172 167 161 155 146 146 137 128 120 112 102 101 99 92 87 84 75 66 57 43 36 22 11
139 173 172 227 218 215 243 229 210 190 188 190 187 230 166 196 207 208 193 191 184 179 175 165 156 148 143 133 128 119 110 107 100 95 87 80 74 71 61 54 38 26 16 9
129 137 205 208 162 228 247 247 215 224 232 213 223 224 201 209 213 210 198 179 181 179 169 165 153 143 132 127 120 117 114 109 103 95 89 84 80 68 54 46 38 38 29 26
203 179 173 209 209 257 238 176 174 194 236 205 213 204 189 150 136 210 186 183 175 170 159 152 141 134 130 127 125 118 114 109 103 95 86 74 62 61 52 39 43 39 33 27
183 209 211 153 217 227 232 216 205 161 246 199 204 190 168 156 188 222 175 166 157 153 148 142 137 134 126 127 126 117 112 106 92 86 84 81 72 62 55 42 43 33 25 33
161 176 205 211 251 248 215 193 157 195 228 187 197 186 162 188 209 123 154 159 155 149 145 139 139 132 127 129 124 110 102 89 93 91 83 66 54 51 45 46 36 26 25 20
165 165 181 186 214 249 156 138 201 217 197 189 186 178 186 166 120 138 146 143 143 138 136 133 127 123 116 115 115 115 118 125 108 88 71 61 53 44 45 36 29 23 10 6
202 212 182 200 206 219 196 259 225 224 194 184 174 183 179 157 151 147 145 140 139 136 132 127 127 116 106 108 119 118 123 105 93 91 81 74 71 63 52 41 34 20 6 347
218 182 199 159 216 224 227 221 250 213 219 177 190 171 167 161 152 149 147 145 140 139 138 139 132 123 118 112 110 115 108 105 104 103 94 85 77 70 51 40 29 22 22 356
159 163 174 232 260 218 231 225 215 192 167 151 154 165 165 153 157 151 147 146 142 139 143 142 132 128 120 114 107 94 97 128 115 104 105 109 98 71 76 58 22 25 61 31
184 196 196 198 203 217 173 185 177 165 171 159 148 150 156 156 151 151 146 142 140 140 138 124 119 120 120 125 111 111 144 133 111 115 124 99 97 86 74 66 102 85 91 68